[[{"header":{"parameterUnit":"m.s-1","parameterCategory":1,"la1":30.2991,"la2":30.254,"lo1":-89.0895,"lo2":-89.0444,"dy":0.0017,"dx":0.0017,"nx":28,"ny":28,"refTime":"2023-09-14T03:00:00:Z","depth":0,"parameterNumber":2,"parameterNumberName":"U-component_of_WINDS"},"data":[0,0,0,0,0,0,0,0,0,0,0,0,0,0,0,0,0,0,0,0,0,0,0,0,0,0,0,0,0,0,0,0,0,0,0,0,0,0,0,0,0,0,0,0,0,0,0,0,0,0,0,0,0,0,0,0,0,0,-2.7592,-2.7592,0,-2.7583,-2.7583,-2.7583,-2.7483,-2.748,-2.7478,-2.7476,-2.7468,-2.747,-2.7472,0,0,0,0,0,0,0,0,0,0,0,0,0,-2.7522,-2.7524,-2.7592,-2.7592,-2.7592,-2.7583,-2.7583,-2.7583,-2.7483,-2.748,-2.7477,-2.7474,-2.7467,-2.747,-2.7472,0,0,0,0,0,0,0,0,0,0,0,0,0,-2.7537,-2.7525,-2.7592,-2.7541,-2.7536,-2.7583,-2.7583,-2.7583,-2.7484,-2.748,-2.7476,-2.7473,-2.7466,-2.747,-2.7473,-2.7569,0,0,-2.7483,-2.7484,0,0,0,0,0,0,0,0,-2.7537,-2.754,-2.7549,-2.7545,-2.7539,-2.753,-2.7556,-2.7578,-2.7485,-2.7504,-2.7475,-2.7471,-2.7492,-2.7493,-2.75,-2.7568,-2.7568,-2.7483,-2.7485,-2.7486,-2.7487,0,0,0,0,0,0,0,-2.7536,-2.754,-2.7589,-2.7549,-2.7543,-2.7519,-2.7517,-2.756,-2.7519,-2.7502,-2.7495,-2.7495,-2.7489,-2.7497,-2.7499,-2.7568,-2.7483,-2.7486,-2.7488,-2.7489,-2.7713,-2.7717,0,0,0,0,0,0,-2.7542,-2.754,-2.7589,-2.7588,-2.7529,-2.7523,-2.7521,-2.7537,-2.7519,-2.7512,-2.7498,-2.749,-2.7493,-2.7495,-2.7498,-2.7607,-2.7486,-2.7489,-2.7491,-2.7709,-2.7714,-2.7718,0,0,0,0,0,0,-2.7541,-2.7547,-2.7589,-2.7562,-2.7565,-2.7528,-2.7548,-2.7539,-2.7547,-2.7516,-2.7508,-2.7514,-2.749,-2.7493,-2.7551,-2.7606,-2.7491,-2.7494,-2.7704,-2.771,-2.7716,-2.7828,0,0,0,0,0,0,-2.7539,-2.7547,-2.7583,-2.7563,-2.7567,-2.7643,-2.7551,-2.7541,-2.7552,-2.7542,-2.7528,-2.7522,-2.7487,-2.7547,-2.7554,-2.7608,-2.7496,-2.7699,-2.7707,-2.7714,-2.7819,-2.7837,-2.7852,0,0,0,0,0,-2.7537,-2.7616,-2.7586,-2.7592,-2.7611,-2.7646,-2.7648,-2.7606,-2.7557,-2.7593,-2.7573,-2.7523,-2.7599,-2.7554,-2.7561,-2.7617,-2.7695,-2.7705,-2.7713,-2.7812,-2.7834,-2.7852,0,0,0,0,0,0,-2.7644,-2.7612,-2.7578,-2.7653,-2.7653,-2.7629,-2.7673,-2.7631,-2.7645,-2.7635,-2.7582,-2.758,-2.7645,-2.7637,-2.7587,-2.7708,-2.7638,-2.7649,-2.7711,-2.7731,-2.7747,-2.7747,-2.7499,0,0,0,0,0,-2.7676,-2.7707,-2.7678,-2.7747,-2.7748,-2.7711,-2.7725,-2.7692,-2.769,-2.7689,-2.7673,-2.7673,-2.7697,-2.7714,-2.7734,-2.7818,-2.7813,-2.786,-2.7876,-2.789,-2.79,-2.7942,-2.7962,-2.7748,-2.7747,-2.7747,0,0,-2.7743,-2.773,-2.7752,-2.7768,-2.7763,-2.7796,-2.7711,-2.775,-2.7773,-2.7695,-2.7748,-2.7737,-2.7733,-2.7804,-2.7835,-2.7799,-2.7958,-2.7902,-2.7913,-2.7915,-2.7954,-2.7974,-2.7992,-2.7754,-2.7753,-2.7752,0,0,-2.7881,-2.7875,-2.7931,-2.7928,-2.7923,-2.7897,-2.7911,-2.7893,-2.7882,-2.7934,-2.7876,-2.7903,-2.7946,-2.7945,-2.795,-2.8088,-2.8042,-2.8096,-2.8182,-2.8224,-2.8241,-2.8256,-2.8303,-2.8321,-2.8106,-2.8106,-2.8107,0,-2.7965,-2.8012,-2.7965,-2.8007,-2.8015,-2.7945,-2.8,-2.8,-2.8002,-2.801,-2.797,-2.802,-2.8013,-2.8082,-2.8116,-2.8123,-2.8136,-2.8097,-2.8242,-2.8257,-2.827,-2.8315,-2.8333,-2.8113,-2.8112,-2.8112,-2.8111,0,-2.8115,-2.8148,-2.8194,-2.8196,-2.8209,-2.8258,-2.8218,-2.8238,-2.8204,-2.8183,-2.8237,-2.8226,-2.8241,-2.8256,-2.8224,-2.832,-2.8298,-2.8252,-2.818,-2.8298,-2.8339,-2.8356,-2.8122,-2.812,-2.8118,-2.8116,0,0,-2.832,-2.8295,-2.8312,-2.8312,-2.83,-2.8325,-2.8371,-2.8385,-2.8402,-2.8406,-2.8442,-2.848,-2.8436,-2.8442,-2.8409,-2.8446,-2.8554,-2.8394,-2.8393,-2.8423,-2.8658,-2.8692,-2.8713,-2.8524,-2.8527,-2.853,-2.8658,0,-2.8452,-2.8527,-2.8486,-2.8567,-2.8596,-2.853,-2.8569,-2.8566,-2.8548,-2.857,-2.855,-2.8576,-2.8517,-2.852,-2.8554,-2.8534,-2.86,-2.8524,-2.8557,-2.8558,-2.8558,-2.8735,-2.8771,-2.8893,-2.8674,-2.8677,-2.8679,0,-2.8616,-2.8625,-2.8709,-2.869,-2.8701,-2.8737,-2.8747,-2.8769,-2.8765,-2.8748,-2.8755,-2.8713,-2.8756,-2.8687,-2.8745,-2.8694,-2.8705,-2.8698,-2.8701,-2.8702,-2.8625,-2.8739,-2.8931,-2.8949,-2.8704,-2.8702,-2.87,0,-2.8756,-2.8789,-2.8843,-2.8845,-2.8825,-2.8852,-2.8845,-2.8836,-2.8848,-2.8856,-2.8863,-2.8877,-2.8885,-2.8897,-2.886,-2.8813,-2.8923,-2.8851,-2.891,-2.8911,-2.8935,-2.8934,-2.9131,-2.8945,-2.8945,-2.8945,-2.8944,0,-2.8907,-2.896,-2.8905,-2.8938,-2.8996,-2.8948,-2.9006,-2.8992,-2.8985,-2.9014,-2.8959,-2.8987,-2.8937,-2.8961,-2.8933,-2.8985,-2.8989,-2.8977,-2.8968,-2.8981,-2.8982,-2.8986,-2.8976,-2.8949,-2.8948,-2.8947,-2.8947,0,-2.9072,-2.9037,-2.9091,-2.9068,-2.9063,-2.9106,-2.9086,-2.9116,-2.9093,-2.913,-2.9137,-2.9102,-2.9126,-2.9091,-2.9113,-2.9093,-2.9164,-2.9144,-2.9165,-2.9159,-2.9219,-2.9214,-2.9424,-2.9449,-2.925,-2.9252,-2.9253,0,-2.917,-2.9209,-2.9189,-2.9204,-2.92,-2.9225,-2.9235,-2.919,-2.9204,-2.9201,-2.9231,-2.925,-2.9264,-2.9307,-2.9283,-2.9299,-2.9278,-2.9351,-2.928,-2.9291,-2.9277,-2.9275,-2.9278,-2.9365,-2.9367,-2.9369,-2.9371,0,-2.9346,-2.9327,-2.9344,-2.9355,-2.9369,-2.9376,-2.9379,-2.9394,-2.9346,-2.9365,-2.9388,-2.9399,-2.942,-2.944,-2.945,-2.9443,-2.9399,-2.9393,-2.9408,-2.942,-2.943,-2.9424,-2.9203,-2.9388,-2.9387,-2.9385,-2.9384,-2.9384,-2.948,-2.9511,-2.9501,-2.9521,-2.9518,-2.9522,-2.9548,-2.9528,-2.9547,-2.956,-2.9532,-2.9563,-2.9557,-2.9565,-2.9563,-2.9587,-2.9555,-2.9576,-2.9581,-2.9587,-2.9595,-2.9428,-2.9589,-2.9588,-2.9588,-2.9587,-2.9587,0,-2.9652,-2.9642,-2.9662,-2.9666,-2.9682,-2.9639,-2.9639,-2.9656,-2.9683,-2.9681,-2.9694,-2.9722,-2.9741,-2.9719,-2.9734,-2.9757,-2.9737,-2.9763,-2.976,-2.9759,-2.9624,-2.9609,-2.9778,-2.9778,-2.9778,-2.9778,-2.9778,-2.9778,-2.9743,-2.9793,-2.9773,-2.982,-2.981,-2.9838,-2.9842,-2.9845,-2.9842,-2.9875,-2.989,-2.9875,-2.9865,-2.9879,-2.9894,-2.9887,-2.9895,-2.9927,-2.9913,-2.9787,-2.9768,-2.975,-2.9736,-2.993,-2.993,-3.0046,-3.0047,-3.0048]},{"header":{"parameterUnit":"m.s-1","parameterCategory":1,"la1":30.2991,"la2":30.254,"lo1":-89.0895,"lo2":-89.0444,"dy":0.0017,"dx":0.0017,"nx":28,"ny":28,"refTime":"2023-09-14T03:00:00:Z","depth":0,"parameterNumber":3,"parameterNumberName":"V-component_of_WINDS"},"data":[0,0,0,0,0,0,0,0,0,0,0,0,0,0,0,0,0,0,0,0,0,0,0,0,0,0,0,0,0,0,0,0,0,0,0,0,0,0,0,0,0,0,0,0,0,0,0,0,0,0,0,0,0,0,0,0,0,0,-2.6123,-2.6123,0,-2.6184,-2.6185,-2.6186,-2.6183,-2.6182,-2.6181,-2.618,-2.6239,-2.6242,-2.6244,0,0,0,0,0,0,0,0,0,0,0,0,0,-2.5998,-2.6,-2.6123,-2.6123,-2.6124,-2.6184,-2.6185,-2.6186,-2.6183,-2.6182,-2.6181,-2.618,-2.6239,-2.6241,-2.6244,0,0,0,0,0,0,0,0,0,0,0,0,0,-2.6055,-2.6001,-2.6122,-2.613,-2.6131,-2.6184,-2.6185,-2.6186,-2.6183,-2.6182,-2.618,-2.6179,-2.6238,-2.6241,-2.6245,-2.6293,0,0,-2.6256,-2.6257,0,0,0,0,0,0,0,0,-2.6051,-2.6059,-2.6128,-2.613,-2.6131,-2.6175,-2.6163,-2.6222,-2.6183,-2.6163,-2.618,-2.6179,-2.6219,-2.6224,-2.6238,-2.6296,-2.6298,-2.6256,-2.6258,-2.626,-2.6261,0,0,0,0,0,0,0,-2.6048,-2.6057,-2.6147,-2.6129,-2.6131,-2.6129,-2.6135,-2.6174,-2.6197,-2.6165,-2.6165,-2.6172,-2.6219,-2.6235,-2.6239,-2.6299,-2.6256,-2.6259,-2.6261,-2.6263,-2.6398,-2.6399,0,0,0,0,0,0,-2.6043,-2.6053,-2.6145,-2.6149,-2.6087,-2.6132,-2.614,-2.6162,-2.6197,-2.6201,-2.6173,-2.6172,-2.6229,-2.6235,-2.6241,-2.6299,-2.626,-2.6263,-2.6265,-2.6396,-2.6398,-2.6399,0,0,0,0,0,0,-2.604,-2.6051,-2.6142,-2.6101,-2.6113,-2.6136,-2.6161,-2.6164,-2.6179,-2.6204,-2.6207,-2.6185,-2.6228,-2.6236,-2.628,-2.6301,-2.6265,-2.6268,-2.6395,-2.6397,-2.6399,-2.6415,0,0,0,0,0,0,-2.6036,-2.605,-2.6069,-2.6102,-2.6115,-2.6181,-2.6162,-2.6166,-2.6186,-2.6185,-2.6216,-2.6219,-2.6228,-2.6275,-2.6284,-2.6305,-2.6271,-2.6393,-2.6395,-2.6398,-2.6413,-2.6418,-2.6422,0,0,0,0,0,-2.6032,-2.6071,-2.6071,-2.6082,-2.614,-2.6183,-2.619,-2.62,-2.6188,-2.6207,-2.6222,-2.6218,-2.6298,-2.6279,-2.6289,-2.6312,-2.6391,-2.6395,-2.6398,-2.6411,-2.6417,-2.6422,0,0,0,0,0,0,-2.604,-2.6075,-2.6075,-2.6126,-2.6152,-2.6182,-2.6207,-2.6206,-2.6235,-2.6232,-2.6243,-2.6249,-2.6293,-2.6307,-2.6286,-2.636,-2.6343,-2.6348,-2.6349,-2.6355,-2.6359,-2.6354,-2.6274,0,0,0,0,0,-2.6048,-2.6081,-2.611,-2.6152,-2.6165,-2.6183,-2.6202,-2.6208,-2.6234,-2.6244,-2.6263,-2.6287,-2.6317,-2.6337,-2.6366,-2.6415,-2.6421,-2.6436,-2.644,-2.6444,-2.6448,-2.6473,-2.648,-2.641,-2.641,-2.641,0,0,-2.6064,-2.6087,-2.6107,-2.6154,-2.6174,-2.6206,-2.6192,-2.6227,-2.6251,-2.6249,-2.6292,-2.6306,-2.6334,-2.638,-2.6401,-2.6393,-2.6469,-2.6448,-2.6451,-2.6453,-2.6477,-2.6484,-2.649,-2.6412,-2.6412,-2.6412,0,0,-2.611,-2.6132,-2.6169,-2.6189,-2.6221,-2.6233,-2.6242,-2.6272,-2.6282,-2.6325,-2.6324,-2.6352,-2.6404,-2.6423,-2.644,-2.6493,-2.6489,-2.6502,-2.6524,-2.6549,-2.6555,-2.6559,-2.6577,-2.6583,-2.6506,-2.6506,-2.6506,0,-2.6125,-2.6175,-2.6187,-2.6223,-2.6242,-2.6244,-2.628,-2.6299,-2.6338,-2.6351,-2.6341,-2.6406,-2.6425,-2.6475,-2.6488,-2.6502,-2.6511,-2.6498,-2.6553,-2.6558,-2.6563,-2.6579,-2.6586,-2.6507,-2.6507,-2.6507,-2.6507,0,-2.6192,-2.6227,-2.6253,-2.6291,-2.6314,-2.635,-2.6366,-2.6387,-2.6391,-2.6403,-2.6446,-2.6469,-2.6502,-2.6514,-2.6518,-2.6565,-2.6558,-2.6551,-2.6534,-2.6571,-2.6586,-2.6593,-2.6509,-2.6508,-2.6508,-2.6508,0,0,-2.6245,-2.6289,-2.6298,-2.6315,-2.635,-2.6376,-2.6411,-2.6445,-2.6462,-2.6488,-2.6517,-2.6561,-2.6554,-2.6573,-2.6579,-2.6601,-2.6639,-2.659,-2.6591,-2.6597,-2.669,-2.6694,-2.6702,-2.6638,-2.6639,-2.664,-2.6687,0,-2.6293,-2.6357,-2.6368,-2.6423,-2.6454,-2.6455,-2.6486,-2.6509,-2.6522,-2.6549,-2.6562,-2.6593,-2.6582,-2.6594,-2.6615,-2.663,-2.6657,-2.6627,-2.6662,-2.6664,-2.6654,-2.671,-2.6715,-2.6759,-2.6693,-2.6695,-2.6695,0,-2.6358,-2.6387,-2.6445,-2.6475,-2.6488,-2.6515,-2.6546,-2.6573,-2.6599,-2.6606,-2.6628,-2.6631,-2.6665,-2.6647,-2.6694,-2.6673,-2.6688,-2.6697,-2.6699,-2.6702,-2.6681,-2.6713,-2.6773,-2.6779,-2.6705,-2.6705,-2.6704,0,-2.6388,-2.6442,-2.6484,-2.6498,-2.6534,-2.6553,-2.6568,-2.6593,-2.6612,-2.6639,-2.6651,-2.6681,-2.6698,-2.672,-2.6731,-2.6717,-2.6776,-2.6759,-2.6782,-2.6782,-2.6794,-2.6792,-2.6855,-2.6806,-2.6805,-2.6805,-2.6805,0,-2.644,-2.6475,-2.6498,-2.6523,-2.6562,-2.6574,-2.6612,-2.6627,-2.6649,-2.6676,-2.6679,-2.6703,-2.6716,-2.6743,-2.6751,-2.6788,-2.6795,-2.6801,-2.6803,-2.68,-2.6799,-2.681,-2.6806,-2.6807,-2.6807,-2.6806,-2.6806,0,-2.648,-2.6497,-2.6542,-2.6572,-2.6581,-2.6608,-2.6633,-2.6657,-2.6669,-2.6704,-2.6712,-2.6731,-2.6763,-2.6776,-2.6814,-2.6819,-2.6861,-2.6861,-2.6853,-2.6853,-2.6874,-2.6871,-2.6945,-2.6954,-2.6899,-2.69,-2.69,0,-2.6512,-2.6539,-2.6573,-2.6592,-2.6608,-2.6638,-2.6658,-2.6671,-2.6691,-2.6722,-2.6742,-2.6774,-2.6799,-2.6849,-2.6865,-2.6894,-2.6894,-2.6918,-2.6898,-2.6894,-2.6892,-2.689,-2.6892,-2.6921,-2.6921,-2.6922,-2.6922,0,-2.6566,-2.6572,-2.6602,-2.6634,-2.6658,-2.6683,-2.6708,-2.6723,-2.6739,-2.6761,-2.6794,-2.6814,-2.6853,-2.6884,-2.6913,-2.6927,-2.6927,-2.6928,-2.6935,-2.6932,-2.6926,-2.6928,-2.6861,-2.6926,-2.6926,-2.6926,-2.6925,-2.6925,-2.6602,-2.6625,-2.6653,-2.6685,-2.6705,-2.6728,-2.6751,-2.6767,-2.6795,-2.6829,-2.6834,-2.6869,-2.6893,-2.6933,-2.6948,-2.6974,-2.6968,-2.6978,-2.698,-2.6982,-2.6983,-2.6923,-2.698,-2.698,-2.698,-2.6979,-2.6979,0,-2.6654,-2.6672,-2.6701,-2.6736,-2.6761,-2.676,-2.6787,-2.6808,-2.6838,-2.6862,-2.6887,-2.6924,-2.6953,-2.6972,-2.7002,-2.7019,-2.7019,-2.7026,-2.7024,-2.7027,-2.6987,-2.6978,-2.7025,-2.7025,-2.7025,-2.7025,-2.7025,-2.7025,-2.6684,-2.6724,-2.6734,-2.6784,-2.6801,-2.6835,-2.6851,-2.6871,-2.689,-2.6931,-2.6956,-2.6969,-2.699,-2.7021,-2.7047,-2.7052,-2.7062,-2.7069,-2.7073,-2.7035,-2.703,-2.7026,-2.7017,-2.7072,-2.7072,-2.7111,-2.7111,-2.7111]}]]